SLI851 MMCM-MHTG

Flight info

Callsign SLI851
Flight time N/A
Altitude 19000
Route CTM3A CTM R899 BZE B753 ARITA DCT TALAG/N0369F180 DCT MELVO DCT TG017 DCT TG015 DCT TG014 DCT TG012 DCT TG011 DCT TG010
Aircraft E190/M-SDE3GILORVW/S

Departure

Time N/A
Airport Chetumal International Airport (MMCM)

Arrival

Time 2026-04-29 06:53
Airport Toncontín Airport (MHTG)
Time Latitude Longitude Altitude Speed Heading
2026-04-29 06:12 16.18307 -88.05308 19027 ft 359 kts 170°
2026-04-29 06:12 16.15820 -88.04845 19028 ft 359 kts 170°
2026-04-29 06:13 16.13393 -88.04390 19030 ft 359 kts 170°
2026-04-29 06:13 16.10936 -88.03922 19028 ft 359 kts 170°
2026-04-29 06:13 16.08484 -88.03455 19028 ft 359 kts 170°
2026-04-29 06:13 16.06028 -88.02990 19030 ft 359 kts 170°
2026-04-29 06:14 16.03575 -88.02523 19030 ft 359 kts 170°
2026-04-29 06:14 16.01121 -88.02058 19030 ft 359 kts 170°
2026-04-29 06:14 15.98663 -88.01592 19030 ft 359 kts 170°
2026-04-29 06:14 15.96205 -88.01125 19030 ft 359 kts 170°
2026-04-29 06:15 15.93754 -88.00661 19030 ft 359 kts 170°
2026-04-29 06:15 15.91296 -88.00194 19027 ft 359 kts 170°
2026-04-29 06:15 15.88839 -87.99730 19030 ft 359 kts 170°
2026-04-29 06:15 15.87415 -87.99459 19030 ft 359 kts 170°
2026-04-29 06:16 15.86081 -87.99206 19029 ft 359 kts 170°
2026-04-29 06:16 15.83620 -87.98740 19030 ft 359 kts 170°
2026-04-29 06:16 15.81167 -87.98275 19030 ft 359 kts 170°
2026-04-29 06:16 15.78711 -87.97810 19026 ft 359 kts 170°
2026-04-29 06:17 15.76253 -87.97346 19030 ft 359 kts 170°
2026-04-29 06:17 15.73825 -87.96885 19029 ft 359 kts 170°
2026-04-29 06:17 15.71338 -87.96416 19030 ft 359 kts 170°
2026-04-29 06:17 15.68910 -87.95956 19031 ft 359 kts 170°
2026-04-29 06:18 15.66461 -87.95493 19027 ft 359 kts 170°
2026-04-29 06:18 15.64000 -87.95028 19030 ft 359 kts 170°
2026-04-29 06:18 15.61548 -87.94564 19030 ft 359 kts 170°
2026-04-29 06:18 15.59091 -87.94101 19026 ft 359 kts 170°
2026-04-29 06:19 15.56638 -87.93636 19030 ft 359 kts 170°
2026-04-29 06:19 15.54181 -87.93173 19031 ft 359 kts 170°
2026-04-29 06:19 15.51719 -87.92708 19028 ft 359 kts 170°
2026-04-29 06:19 15.49280 -87.92182 19027 ft 359 kts 165°
2026-04-29 06:20 15.46886 -87.91431 19031 ft 359 kts 162°
2026-04-29 06:20 15.44517 -87.90603 19026 ft 359 kts 161°
2026-04-29 06:20 15.42200 -87.89644 19028 ft 359 kts 155°
2026-04-29 06:20 15.39928 -87.88568 19031 ft 359 kts 156°
2026-04-29 06:21 15.37688 -87.87488 19029 ft 359 kts 155°
2026-04-29 06:21 15.35425 -87.86388 19026 ft 359 kts 155°
2026-04-29 06:21 15.33162 -87.85287 19027 ft 359 kts 155°
2026-04-29 06:21 15.30902 -87.84189 19030 ft 359 kts 155°
2026-04-29 06:22 15.28635 -87.83087 19029 ft 359 kts 155°
2026-04-29 06:22 15.26373 -87.81989 19032 ft 359 kts 155°
2026-04-29 06:22 15.24110 -87.80891 19033 ft 359 kts 155°
2026-04-29 06:22 15.21848 -87.79793 19026 ft 359 kts 155°
2026-04-29 06:23 15.19584 -87.78695 19029 ft 359 kts 155°
2026-04-29 06:23 15.17317 -87.77597 19031 ft 359 kts 155°
2026-04-29 06:23 15.15819 -87.76871 19030 ft 359 kts 155°
2026-04-29 06:23 15.13552 -87.75772 19028 ft 359 kts 155°
2026-04-29 06:24 15.11290 -87.74675 19028 ft 359 kts 155°
2026-04-29 06:24 15.09029 -87.73581 19028 ft 359 kts 155°
2026-04-29 06:24 15.06764 -87.72483 19032 ft 359 kts 155°
2026-04-29 06:24 15.04494 -87.71385 19033 ft 359 kts 155°
2026-04-29 06:25 15.02231 -87.70289 19028 ft 359 kts 155°
2026-04-29 06:25 14.99965 -87.69191 19027 ft 359 kts 155°
2026-04-29 06:25 14.97698 -87.68096 19033 ft 359 kts 155°
2026-04-29 06:25 14.95435 -87.67000 19032 ft 359 kts 155°
2026-04-29 06:26 14.93168 -87.65905 19026 ft 359 kts 155°
2026-04-29 06:26 14.90905 -87.64811 19031 ft 359 kts 155°
2026-04-29 06:26 14.88668 -87.63653 19023 ft 359 kts 148°
2026-04-29 06:26 14.86642 -87.62139 19034 ft 360 kts 141°
2026-04-29 06:27 14.84747 -87.60485 19035 ft 360 kts 139°
2026-04-29 06:27 14.82875 -87.58766 19029 ft 360 kts 138°
2026-04-29 06:27 14.81098 -87.56940 19025 ft 360 kts 133°
2026-04-29 06:27 14.79396 -87.55031 19035 ft 360 kts 133°
2026-04-29 06:28 14.77706 -87.53111 19028 ft 360 kts 132°
2026-04-29 06:28 14.76024 -87.51190 19025 ft 360 kts 132°
2026-04-29 06:28 14.74343 -87.49269 19035 ft 360 kts 133°
2026-04-29 06:28 14.72662 -87.47349 19030 ft 360 kts 132°
2026-04-29 06:29 14.70978 -87.45428 19023 ft 360 kts 133°
2026-04-29 06:29 14.69318 -87.43532 19031 ft 360 kts 132°
2026-04-29 06:29 14.67631 -87.41611 19033 ft 360 kts 132°
2026-04-29 06:29 14.65951 -87.39693 19025 ft 360 kts 133°
2026-04-29 06:30 14.64261 -87.37769 19029 ft 360 kts 132°
2026-04-29 06:30 14.60894 -87.33931 19028 ft 360 kts 133°
2026-04-29 06:30 14.59211 -87.32015 19030 ft 360 kts 133°
2026-04-29 06:31 14.57530 -87.30100 19031 ft 360 kts 133°
2026-04-29 06:31 14.55845 -87.28184 19030 ft 360 kts 133°
2026-04-29 06:31 14.54161 -87.26265 19029 ft 360 kts 133°
2026-04-29 06:31 14.52479 -87.24352 19027 ft 360 kts 133°
2026-04-29 06:32 14.50795 -87.22435 19028 ft 360 kts 133°
2026-04-29 06:32 14.49108 -87.20519 19031 ft 360 kts 133°
2026-04-29 06:32 14.47424 -87.18602 19027 ft 360 kts 133°
2026-04-29 06:32 14.45680 -87.16750 19016 ft 360 kts 142°
2026-04-29 06:33 14.43510 -87.15577 19024 ft 359 kts 165°
2026-04-29 06:33 14.41041 -87.15267 19046 ft 358 kts 179°
2026-04-29 06:33 14.38545 -87.15324 19040 ft 358 kts 186°
2026-04-29 06:33 14.36076 -87.15700 19036 ft 358 kts 189°
2026-04-29 06:34 14.33618 -87.16107 18982 ft 358 kts 190°
2026-04-29 06:34 14.31207 -87.16532 18002 ft 349 kts 190°
2026-04-29 06:34 14.28948 -87.17355 17095 ft 335 kts 213°
2026-04-29 06:34 14.27251 -87.18840 16752 ft 307 kts 227°
2026-04-29 06:35 14.25940 -87.20470 16386 ft 286 kts 234°
2026-04-29 06:35 14.24866 -87.22121 15992 ft 269 kts 241°
2026-04-29 06:35 14.24063 -87.23805 15578 ft 255 kts 245°
2026-04-29 06:35 14.23328 -87.25427 15156 ft 244 kts 243°
2026-04-29 06:36 14.22511 -87.26901 14727 ft 231 kts 236°
2026-04-29 06:36 14.21572 -87.28210 14182 ft 225 kts 229°
2026-04-29 06:36 14.20482 -87.29353 13574 ft 223 kts 224°
2026-04-29 06:36 14.19361 -87.30441 12976 ft 221 kts 223°
2026-04-29 06:37 14.18197 -87.31457 12375 ft 219 kts 214°
2026-04-29 06:37 14.16866 -87.32191 11790 ft 217 kts 202°
2026-04-29 06:37 14.15435 -87.32650 11054 ft 218 kts 192°
2026-04-29 06:37 14.13806 -87.32878 10070 ft 244 kts 185°
2026-04-29 06:38 14.12073 -87.32830 9177 ft 257 kts 172°
2026-04-29 06:38 14.10396 -87.32287 8691 ft 252 kts 153°
2026-04-29 06:38 14.08941 -87.31268 7941 ft 257 kts 140°
2026-04-29 06:38 14.07717 -87.29959 7304 ft 256 kts 131°
2026-04-29 06:39 14.06584 -87.28573 6931 ft 246 kts 130°
2026-04-29 06:39 14.05588 -87.27207 6610 ft 235 kts 123°
2026-04-29 06:39 14.04853 -87.25736 6496 ft 217 kts 108°
2026-04-29 06:39 14.04614 -87.24281 6478 ft 198 kts 91°
2026-04-29 06:40 14.04837 -87.22962 6384 ft 182 kts 70°
2026-04-29 06:40 14.05506 -87.21951 6204 ft 167 kts 32°
2026-04-29 06:40 14.06571 -87.21637 5981 ft 161 kts 354°
2026-04-29 06:40 14.07754 -87.21617 5940 ft 170 kts
2026-04-29 06:41 14.08856 -87.21362 5878 ft 160 kts 13°
2026-04-29 06:41 14.10040 -87.21039 5888 ft 193 kts 14°
2026-04-29 06:41 14.11393 -87.20704 5899 ft 203 kts 12°
2026-04-29 06:41 14.12776 -87.20423 5900 ft 202 kts 11°
2026-04-29 06:42 14.14142 -87.20111 5894 ft 203 kts 12°
2026-04-29 06:42 14.15574 -87.19781 6269 ft 215 kts 12°
2026-04-29 06:42 14.17015 -87.19460 7069 ft 207 kts 11°
2026-04-29 06:42 14.18417 -87.19153 7731 ft 207 kts 11°
2026-04-29 06:43 14.19834 -87.18843 7988 ft 209 kts 11°
2026-04-29 06:43 14.21260 -87.18530 8258 ft 210 kts 11°
2026-04-29 06:43 14.22689 -87.18215 8514 ft 211 kts 11°
2026-04-29 06:43 14.24119 -87.17901 8727 ft 207 kts 11°
2026-04-29 06:44 14.25532 -87.17624 8797 ft 208 kts
2026-04-29 06:44 14.26899 -87.18027 8848 ft 208 kts 321°
2026-04-29 06:44 14.27690 -87.19232 8872 ft 207 kts 281°
2026-04-29 06:44 14.27529 -87.20672 8892 ft 206 kts 240°
2026-04-29 06:45 14.26502 -87.21657 8913 ft 205 kts 207°
2026-04-29 06:45 14.25309 -87.22455 8910 ft 205 kts 221°
2026-04-29 06:45 14.24352 -87.23546 8901 ft 205 kts 233°
2026-04-29 06:45 14.23633 -87.24813 8886 ft 205 kts 243°
2026-04-29 06:46 14.23013 -87.26135 8877 ft 205 kts 241°
2026-04-29 06:46 14.22245 -87.27369 8870 ft 205 kts 233°
2026-04-29 06:46 14.21337 -87.28497 8874 ft 205 kts 225°
2026-04-29 06:46 14.20316 -87.29521 8877 ft 205 kts 223°
2026-04-29 06:47 14.19271 -87.30521 8851 ft 206 kts 222°
2026-04-29 06:47 14.18230 -87.31492 8793 ft 197 kts 220°
2026-04-29 06:47 14.17154 -87.32344 8542 ft 192 kts 212°
2026-04-29 06:47 14.16050 -87.32974 8420 ft 177 kts 207°
2026-04-29 06:48 14.14935 -87.33406 8179 ft 168 kts 192°
2026-04-29 06:48 14.13796 -87.33492 7910 ft 162 kts 177°
2026-04-29 06:48 14.12685 -87.33388 7600 ft 159 kts 172°
2026-04-29 06:48 14.11610 -87.33130 7273 ft 159 kts 160°
2026-04-29 06:49 14.10590 -87.32702 6947 ft 158 kts 157°
2026-04-29 06:49 14.09608 -87.32204 6596 ft 157 kts 149°
2026-04-29 06:49 14.08709 -87.31566 6259 ft 157 kts 139°
2026-04-29 06:49 14.07951 -87.30758 5927 ft 157 kts 130°
2026-04-29 06:50 14.07312 -87.29854 5608 ft 156 kts 124°
2026-04-29 06:50 14.06721 -87.28934 5353 ft 148 kts 123°
2026-04-29 06:50 14.06193 -87.28095 5083 ft 136 kts 123°
2026-04-29 06:50 14.05666 -87.27264 4940 ft 145 kts 124°
2026-04-29 06:51 14.05124 -87.26421 4901 ft 139 kts 124°
2026-04-29 06:51 14.04596 -87.25595 4873 ft 138 kts 124°
2026-04-29 06:51 14.04101 -87.24732 4554 ft 140 kts 112°
2026-04-29 06:51 14.03932 -87.23764 4241 ft 135 kts 88°
2026-04-29 06:52 14.04144 -87.22822 3897 ft 138 kts 63°
2026-04-29 06:52 14.04815 -87.22183 3515 ft 131 kts 21°
2026-04-29 06:52 14.05653 -87.21869 3294 ft 119 kts 18°
2026-04-29 06:52 14.06296 -87.21646 3259 ft 73 kts 18°
2026-04-29 06:53 14.06577 -87.21568 3251 ft 18 kts 323°
2026-04-29 06:53 14.06586 -87.21624 3251 ft 5 kts 230°
2026-04-29 06:53 14.06562 -87.21640 3252 ft 3 kts 204°
2026-04-29 06:53 14.06542 -87.21648 3252 ft 4 kts 202°
2026-04-29 06:55 14.06538 -87.21650 3252 ft 0 kts 202°
2026-04-29 07:13 14.06537 -87.21650 3252 ft 1 kts 201°
2026-04-29 07:13 14.06516 -87.21658 3252 ft 7 kts 199°
2026-04-29 07:14 14.06440 -87.21684 3254 ft 16 kts 198°
2026-04-29 07:14 14.06335 -87.21721 3258 ft 14 kts 198°
2026-04-29 07:14 14.06223 -87.21760 3264 ft 20 kts 198°
2026-04-29 07:14 14.06129 -87.21793 3266 ft 17 kts 199°
2026-04-29 07:15 14.06091 -87.21832 3268 ft 0 kts 261°
2026-04-29 07:15 14.06071 -87.21844 3268 ft 5 kts 199°
2026-04-29 07:15 14.06061 -87.21873 3271 ft 3 kts 281°
2026-04-29 07:15 14.06065 -87.21884 3272 ft 0 kts 288°